[Iaude] MPEC F105: 2022 FA3 [a=1.54,e=0.28,i=18.0,H=25.1]

mpec at marsden.cfa.harvard.edu mpec at marsden.cfa.harvard.edu
Mon Mar 28 06:51:34 EDT 2022


M.P.E.C. 2022-F105                               Issued 2022 March 28, 10:50 UT

     The Minor Planet Electronic Circulars contain information on unusual
         minor planets and routine data on comets.  They are published
    on behalf of Division F of the International Astronomical Union by the
          Minor Planet Center, Smithsonian Astrophysical Observatory,
                          Cambridge, MA 02138, U.S.A.

             Prepared using the Tamkin Foundation Computer Network

                              MPC at CFA.HARVARD.EDU
            URL https://www.minorplanetcenter.net/    ISSN 1523-6714

                                    2022 FA3                                    


Observations:
     K22F03A* C2022 03 24.28124610 21 07.32 +17 54 16.8          22.78GVEF105V00
     K22F03A  C2022 03 24.28611510 21 08.10 +17 54 53.5          21.99GVEF105V00
     K22F03A  C2022 03 24.29096710 21 08.92 +17 55 30.3          22.43GVEF105V00
     K22F03A  C2022 03 24.29582210 21 09.72 +17 56 06.7          22.27GVEF105V00
     K22F03A mC2022 03 24.40039210 21 27.50 +18 09 09.7          21.97GVEF105V00
     K22F03A mC2022 03 24.40128010 21 27.66 +18 09 16.9          22.57GVEF105V00
     K22F03A mC2022 03 24.40216610 21 27.82 +18 09 22.6          22.25GVEF105V00
     K22F03A mC2022 03 24.40305610 21 27.99 +18 09 29.2          22.25GVEF105V00
     K22F03A KC2022 03 25.21378 10 24 06.43 +19 51 14.8          22.9 GVEF105291
     K22F03A KC2022 03 25.22241 10 24 07.90 +19 52 19.2          22.3 GVEF105291
     K22F03A KC2022 03 25.23119 10 24 09.42 +19 53 24.9          22.2 GVEF105291
     K22F03A KC2022 03 26.18949 10 27 20.46 +21 52 15.2          21.8 GVEF105291
     K22F03A KC2022 03 26.20171 10 27 22.68 +21 53 45.9          22.9 GVEF105291
     K22F03A KC2022 03 26.21403 10 27 24.92 +21 55 17.4          22.3 GVEF105291
     K22F03A KC2022 03 28.11598310 34 05.68 +25 45 16.7          22.1 VuEF105H21
     K22F03A KC2022 03 28.12033310 34 06.55 +25 45 48.0          22.2 VuEF105H21
     K22F03A KC2022 03 28.12482610 34 07.43 +25 46 20.0          22.4 VuEF105H21

Observer details:
291 LPL/Spacewatch II.  Observer R. A. Mastaler.  1.8-m f/2.7 reflector + CCD.
H21 Astronomical Research Observatory, Westfield.  Observer R. Holmes.
    Measurers T. Linder, R. Holmes, L. Horn.  1.3-m f/4.0 astrograph + CCD.
V00 Kitt Peak-Bok.  Observer H. Groeller.  Measurers M. J. Brucker, E. J.
    Christensen, C. E. Woodward, G. A. Farneth, J. B. Fazekas, D. C. Fuls, A.
    R. Gibbs, A. D. Grauer, H. Groeller, R. A. Kowalski, S. M. Larson, G. J.
    Leonard, R. S. McMillan, D. Rankin, R. L. Seaman, A. Serrano, F. C.
    Shelly, K. W. Wierzchos.  2.25-m reflector + CCD.

Orbital elements:
2022 FA3                                                 Earth MOID = 0.1253 AU
Epoch 2022 Jan. 21.0 TT = JDT 2459600.5                 Veres                   
M 316.47864              (2000.0)            P               Q                  
n   0.51541015     Peri.   24.07115     -0.93517235     +0.35368118             
a   1.5406385      Node   176.47276     -0.35383732     -0.93047552             
e   0.2828795      Incl.   18.02211     -0.01586919     -0.09552452             
P   1.91           H   25.17          G   0.15           U   8                  
Residuals in seconds of arc
220324 V00  0.2+  0.2-    220324 V00  0.0   0.2-    220326 291  0.1+  0.5-
220324 V00  0.2-  0.1-    220324 V00  0.1+  0.2-    220326 291  0.5+  0.3-
220324 V00  0.0   0.1+    220325 291  0.0   0.7+    220328 H21  0.0   0.1-
220324 V00  0.1-  0.1+    220325 291  0.1-  0.4+    220328 H21  0.1+  0.1+
220324 V00  0.2-  0.2+    220325 291  0.0   0.3+    220328 H21  0.1-  0.0
220324 V00  0.1-  0.7+    220326 291  0.1-  0.5-

Ephemeris:
2022 FA3                 a,e,i = 1.54, 0.28, 18                  q = 1.1048
Date    TT    R. A. (2000) Decl.     Delta      r    Elong.  Phase     V
2022 02 26    09 39 07.6 -23 13 35   0.2227  1.1795   145.1    28.7    23.5
...
2022 03 13    09 54 19.2 -04 36 52   0.1615  1.1418   154.7    21.9    22.6
...
2022 03 21    10 11 39.4 +10 59 55   0.1469  1.1265   150.9    25.5    22.4
...
2022 03 27    10 30 05.9 +23 31 29   0.1468  1.1176   142.4    33.0    22.6
2022 03 28    10 33 39.1 +25 31 40   0.1477  1.1163   140.8    34.4    22.7
2022 03 29    10 37 20.5 +27 29 03   0.1489  1.1151   139.2    35.8    22.7
...
2022 04 04    11 02 16.0 +37 55 17   0.1602  1.1093   129.8    43.9    23.1
...
2022 04 12    11 41 37.2 +47 43 25   0.1844  1.1052   119.7    52.0    23.6
...
2022 04 27    12 59 40.3 +55 29 39   0.2427  1.1093   109.0    59.1    24.4

M. P. C. Staff               (C) Copyright 2022 MPC           M.P.E.C. 2022-F105




More information about the Iaude mailing list